Date String (YYYY-MM-DD hh:mm:ss) UTC,Instrument flags,Ambient pressure (hPa),Sample flow (lpm),Bypass flow (lpm),Sample temperature (°C),Ambient temperature (°C),ASC tube jacket temperature (°C),LED temperature (°C),Box temperature (°C),Sample RH (%),Span deviation,Mass concentration (μg/m³),Mass concentration (μg/m³),Mass concentration (μg/m³)
DateTimeUTC,F1_M11,P_M11,Q1_M11,Q2_M11,T1_M11,T2_M11,T3_M11,T4_M11,T5_M11,U1_M11,ZSPAN_M11,X0_M11,X2_M11,X1_M11
2023-05-04 05:00:00,,0824.7,5.01,0.00,29.9,28.4,00.0,38.3,31.4,11.2,0000.0,0011.05,0004.68,0003.19
2023-05-04 05:01:00,,0824.7,5.00,0.00,29.9,28.4,00.0,38.3,31.4,11.2,0000.0,0011.12,0004.72,0003.19
2023-05-04 05:02:00,,0824.7,4.99,0.00,29.9,28.4,00.0,38.3,31.4,11.2,0000.0,0011.06,0004.69,0003.18
2023-05-04 05:03:00,,0824.7,4.99,0.00,29.9,28.4,00.0,38.3,31.4,11.2,0000.0,0011.36,0004.66,0003.15
2023-05-04 05:04:00,,0824.7,5.00,0.00,29.9,28.4,00.0,38.3,31.4,11.2,0000.0,0011.53,0004.65,0003.14
2023-05-04 05:05:00,,0824.7,5.01,0.00,29.9,28.4,00.0,38.3,31.4,11.3,0000.0,0012.07,0004.65,0003.14
2023-05-04 05:06:00,,0824.7,4.99,0.00,29.9,28.4,00.0,38.3,31.4,11.2,0000.0,0011.83,0004.57,0003.14
2023-05-04 05:07:00,,0824.7,4.99,0.00,29.9,28.4,00.0,38.3,31.4,11.2,0000.0,0012.03,0004.57,0003.13
2023-05-04 05:08:00,,0824.7,5.02,0.00,29.9,28.4,00.0,38.3,31.4,11.2,0000.0,0012.03,0004.54,0003.14
2023-05-04 05:09:00,,0824.7,4.99,0.00,29.9,28.4,00.0,38.3,31.4,11.2,0000.0,0011.48,0004.50,0003.14
2023-05-04 05:10:00,,0824.7,5.00,0.00,29.9,28.4,00.0,38.3,31.4,11.2,0000.0,0011.72,0004.51,0003.14
2023-05-04 05:11:00,,0824.7,5.01,0.00,29.9,28.4,00.0,38.3,31.4,11.2,0000.0,0012.22,0004.53,0003.15
2023-05-04 05:12:00,,0824.7,5.02,0.00,29.9,28.4,00.0,38.3,31.4,11.3,0000.0,0012.12,0004.55,0003.16
2023-05-04 05:13:00,,0824.7,5.00,0.00,29.9,28.4,00.0,38.3,31.4,11.2,0000.0,0012.35,0004.60,0003.17
2023-05-04 05:14:00,,0824.7,4.98,0.00,29.9,28.4,00.0,38.3,31.4,11.3,0000.0,0012.57,0004.60,0003.17
2023-05-04 05:15:00,,0824.7,5.00,0.00,29.9,28.4,00.0,38.3,31.4,11.3,0000.0,0012.40,0004.57,0003.17
2023-05-04 05:16:00,,0824.8,5.02,0.00,29.9,28.4,00.0,38.3,31.4,11.2,0000.0,0012.12,0004.60,0003.16
2023-05-04 05:17:00,,0824.7,5.01,0.00,29.9,28.4,00.0,38.3,31.4,11.2,0000.0,0012.58,0004.65,0003.18
2023-05-04 05:18:00,,0824.7,4.99,0.00,29.9,28.4,00.0,38.3,31.4,11.2,0000.0,0012.67,0004.68,0003.18
2023-05-04 05:19:00,,0824.7,4.99,0.00,29.9,28.4,00.0,38.3,31.4,11.2,0000.0,0012.90,0004.69,0003.18
2023-05-04 05:20:00,,0824.7,5.01,0.00,29.9,28.4,00.0,38.3,31.4,11.2,0000.0,0013.26,0004.73,0003.18
2023-05-04 05:21:00,,0824.8,5.00,0.00,29.9,28.4,00.0,38.3,31.4,11.2,0000.0,0012.60,0004.71,0003.18
2023-05-04 05:22:00,,0824.7,5.00,0.00,29.9,28.4,00.0,38.3,31.4,11.2,0000.0,0012.15,0004.72,0003.18
2023-05-04 05:23:00,,0824.8,5.00,0.00,29.9,28.4,00.0,38.3,31.4,11.2,0000.0,0012.52,0004.73,0003.17
2023-05-04 05:24:00,,0824.7,5.00,0.00,29.9,28.4,00.0,38.3,31.4,11.1,0000.0,0012.44,0004.71,0003.16
2023-05-04 05:25:00,,0824.9,5.01,0.00,29.9,28.3,00.0,38.3,31.4,11.1,0000.0,0012.01,0004.72,0003.17
2023-05-04 05:26:00,,0824.9,5.01,0.00,29.8,28.3,00.0,38.3,31.4,11.7,0000.0,0012.17,0004.76,0003.19
2023-05-04 05:27:00,,0825.0,5.01,0.00,29.8,28.3,00.0,38.3,31.4,12.6,0000.0,0012.11,0004.74,0003.19
2023-05-04 05:28:00,,0824.9,5.00,0.00,29.9,28.4,00.0,38.3,31.4,12.6,0000.0,0011.93,0004.78,0003.19
2023-05-04 05:29:00,,0824.9,4.99,0.00,29.9,28.4,00.0,38.3,31.4,12.3,0000.0,0011.97,0004.82,0003.19
2023-05-04 05:30:00,,0824.9,5.00,0.00,29.9,28.3,00.0,38.3,31.4,11.5,0000.0,0011.65,0004.87,0003.20
2023-05-04 05:31:00,,0824.9,5.01,0.00,29.9,28.3,00.0,38.3,31.4,11.4,0000.0,0011.16,0004.85,0003.18
2023-05-04 05:32:00,,0824.9,4.99,0.00,29.9,28.3,00.0,38.3,31.4,11.1,0000.0,0011.26,0004.82,0003.17
2023-05-04 05:33:00,,0824.9,4.99,0.00,29.9,28.3,00.0,38.3,31.4,11.4,0000.0,0011.78,0004.86,0003.17
2023-05-04 05:34:00,,0825.0,5.00,0.00,29.9,28.3,00.0,38.3,31.4,11.6,0000.0,0011.74,0004.78,0003.17
2023-05-04 05:35:00,,0825.0,5.00,0.00,29.9,28.3,00.0,38.3,31.4,11.7,0000.0,0011.98,0004.77,0003.18
2023-05-04 05:36:00,,0825.0,4.99,0.00,29.9,28.3,00.0,38.3,31.5,11.8,0000.0,0012.31,0004.76,0003.17
2023-05-04 05:37:00,,0825.0,4.99,0.00,29.9,28.4,00.0,38.3,31.5,11.7,0000.0,0012.32,0004.73,0003.17
2023-05-04 05:38:00,,0825.0,5.00,0.00,29.9,28.4,00.0,38.3,31.5,11.8,0000.0,0012.22,0004.73,0003.15
2023-05-04 05:39:00,,0824.9,5.01,0.00,29.9,28.5,00.0,38.3,31.5,11.8,0000.0,0012.00,0004.66,0003.13
2023-05-04 05:40:00,,0825.0,4.99,0.00,29.9,28.5,00.0,38.3,31.5,11.6,0000.0,0011.99,0004.61,0003.12
2023-05-04 05:41:00,,0824.9,4.99,0.00,30.0,28.5,00.0,38.3,31.6,11.6,0000.0,0011.69,0004.51,0003.11
2023-05-04 05:42:00,,0825.0,5.00,0.00,30.0,28.6,00.0,38.3,31.6,11.7,0000.0,0011.56,0004.46,0003.11
2023-05-04 05:43:00,,0825.0,5.01,0.00,30.0,28.6,00.0,38.3,31.6,11.7,0000.0,0011.58,0004.45,0003.11
2023-05-04 05:44:00,,0825.0,5.01,0.00,30.0,28.6,00.0,38.3,31.6,11.7,0000.0,0011.25,0004.47,0003.11
2023-05-04 05:45:00,,0825.0,4.99,0.00,30.0,28.6,00.0,38.4,31.6,11.8,0000.0,0011.32,0004.53,0003.11
2023-05-04 05:46:00,,0824.9,4.99,0.00,30.0,28.6,00.0,38.4,31.7,11.9,0000.0,0011.16,0004.50,0003.11
2023-05-04 05:47:00,,0825.0,5.00,0.00,30.0,28.6,00.0,38.4,31.7,11.9,0000.0,0010.92,0004.44,0003.10
2023-05-04 05:48:00,,0824.9,5.02,0.00,30.1,28.7,00.0,38.4,31.7,12.0,0000.0,0010.53,0004.40,0003.10
2023-05-04 05:49:00,,0825.0,5.00,0.00,30.1,28.7,00.0,38.4,31.7,12.0,0000.0,0010.43,0004.38,0003.11
2023-05-04 05:50:00,,0825.0,5.00,0.00,30.1,28.7,00.0,38.4,31.7,12.0,0000.0,0010.52,0004.37,0003.12
2023-05-04 05:51:00,,0825.0,5.01,0.00,30.1,28.7,00.0,38.4,31.7,12.0,0000.0,0010.49,0004.30,0003.12
2023-05-04 05:52:00,,0825.0,5.01,0.00,30.1,28.7,00.0,38.4,31.7,12.0,0000.0,0011.04,0004.35,0003.12
2023-05-04 05:53:00,,0825.0,5.00,0.00,30.1,28.8,00.0,38.4,31.7,12.1,0000.0,0012.30,0004.39,0003.14
2023-05-04 05:54:00,,0825.0,5.00,0.00,30.1,28.8,00.0,38.4,31.7,12.0,0000.0,0012.56,0004.42,0003.14
2023-05-04 05:55:00,,0825.0,4.99,0.00,30.1,28.8,00.0,38.5,31.7,11.9,0000.0,0012.48,0004.38,0003.14
2023-05-04 05:56:00,,0825.0,5.01,0.00,30.2,28.8,00.0,38.5,31.7,11.8,0000.0,0012.11,0004.31,0003.13
2023-05-04 05:57:00,,0825.0,5.01,0.00,30.2,28.8,00.0,38.5,31.8,11.8,0000.0,0012.30,0004.33,0003.12
2023-05-04 05:58:00,,0825.0,5.00,0.00,30.2,28.8,00.0,38.5,31.8,11.8,0000.0,0012.77,0004.37,0003.13
2023-05-04 05:59:00,,0825.0,5.00,0.00,30.2,28.8,00.0,38.5,31.8,11.8,0000.0,0013.60,0004.42,0003.13
